Time,TemperatureF,DewpointF,PressureIn,WindDirection,WindDirectionDegrees,WindSpeedMPH,WindSpeedGustMPH,Humidity,HourlyPrecipIn,Conditions,Clouds,dailyrainin,SoftwareType,DateUTC
2013-05-19 00:01:00,54.9,44.5,30.31,WSW,243,0.0,0.0,68,0.00,,,0.00,WeatherCatV1.11B39,2013-05-19 04:01:00,
2013-05-19 00:06:00,54.7,44.7,30.30,WSW,243,0.0,0.0,69,0.00,,,0.00,WeatherCatV1.11B39,2013-05-19 04:06:00,
2013-05-19 00:11:00,54.7,44.7,30.31,WSW,243,0.0,0.0,69,0.00,,,0.00,WeatherCatV1.11B39,2013-05-19 04:11:00,
2013-05-19 00:16:00,54.2,45.0,30.31,North,3,0.0,0.0,71,0.00,,,0.00,WeatherCatV1.11B39,2013-05-19 04:16:00,
2013-05-19 00:21:00,54.1,44.9,30.31,NNE,30,0.0,0.0,71,0.00,,,0.00,WeatherCatV1.11B39,2013-05-19 04:21:00,
2013-05-19 00:26:00,54.0,44.8,30.31,NNE,31,0.0,0.0,71,0.00,,,0.00,WeatherCatV1.11B39,2013-05-19 04:26:00,
2013-05-19 00:31:00,53.8,45.0,30.32,NNE,31,0.0,0.0,72,0.00,,,0.00,WeatherCatV1.11B39,2013-05-19 04:31:00,
2013-05-19 00:36:00,53.6,44.8,30.31,WNW,283,0.0,0.0,72,0.00,,,0.00,WeatherCatV1.11B39,2013-05-19 04:36:00,
2013-05-19 00:41:00,54.2,45.7,30.31,SW,224,0.0,0.0,73,0.00,,,0.00,WeatherCatV1.11B39,2013-05-19 04:41:00,
2013-05-19 00:46:00,54.2,45.7,30.32,SW,224,0.0,0.0,73,0.00,,,0.00,WeatherCatV1.11B39,2013-05-19 04:46:00,
2013-05-19 00:51:00,54.4,46.3,30.31,WSW,255,0.0,3.0,74,0.00,,,0.00,WeatherCatV1.11B39,2013-05-19 04:51:00,
2013-05-19 00:56:00,55.6,46.7,30.31,SW,226,0.0,0.0,72,0.00,,,0.00,WeatherCatV1.11B39,2013-05-19 04:56:00,
2013-05-19 01:01:00,56.2,46.9,30.31,SW,226,0.0,0.0,71,0.00,,,0.00,WeatherCatV1.11B39,2013-05-19 05:01:00,
2013-05-19 01:06:00,56.6,46.5,30.31,WSW,253,0.0,3.0,69,0.00,,,0.00,WeatherCatV1.11B39,2013-05-19 05:06:00,
2013-05-19 01:11:00,56.9,46.1,30.31,WSW,250,5.0,7.0,67,0.00,,,0.00,WeatherCatV1.11B39,2013-05-19 05:11:00,
2013-05-19 01:16:00,57.0,45.3,30.31,WSW,247,4.0,5.0,65,0.00,,,0.00,WeatherCatV1.11B39,2013-05-19 05:16:00,
2013-05-19 01:21:00,57.2,45.5,30.31,WSW,256,7.0,7.0,65,0.00,,,0.00,WeatherCatV1.11B39,2013-05-19 05:21:00,
2013-05-19 01:26:00,57.2,44.7,30.31,WSW,252,0.0,7.0,63,0.00,,,0.00,WeatherCatV1.11B39,2013-05-19 05:26:00,
2013-05-19 01:31:00,57.2,45.5,30.31,WSW,245,0.0,6.0,65,0.00,,,0.00,WeatherCatV1.11B39,2013-05-19 05:31:00,
2013-05-19 01:36:00,57.0,44.9,30.31,WSW,256,5.0,7.0,64,0.00,,,0.00,WeatherCatV1.11B39,2013-05-19 05:36:00,
2013-05-19 01:41:00,57.0,45.3,30.31,SW,234,5.0,5.0,65,0.00,,,0.00,WeatherCatV1.11B39,2013-05-19 05:41:00,
2013-05-19 01:46:00,56.9,45.3,30.31,West,266,0.0,0.0,65,0.00,,,0.00,WeatherCatV1.11B39,2013-05-19 05:46:00,
2013-05-19 01:51:00,56.9,45.3,30.31,SW,221,0.0,4.0,65,0.00,,,0.00,WeatherCatV1.11B39,2013-05-19 05:51:00,
2013-05-19 01:56:00,56.6,45.0,30.31,SW,222,0.0,0.0,65,0.00,,,0.00,WeatherCatV1.11B39,2013-05-19 05:56:00,
2013-05-19 02:01:00,56.5,45.7,30.32,SW,225,0.0,0.0,67,0.00,,,0.00,WeatherCatV1.11B39,2013-05-19 06:01:00,
2013-05-19 02:06:00,56.5,45.7,30.31,West,262,0.0,1.0,67,0.00,,,0.00,WeatherCatV1.11B39,2013-05-19 06:06:00,
2013-05-19 02:11:00,56.3,46.3,30.31,NW,314,0.0,0.0,69,0.00,,,0.00,WeatherCatV1.11B39,2013-05-19 06:11:00,
2013-05-19 02:16:00,56.2,46.2,30.31,West,274,0.0,0.0,69,0.00,,,0.00,WeatherCatV1.11B39,2013-05-19 06:16:00,
2013-05-19 02:21:00,55.7,44.9,30.32,West,274,0.0,0.0,67,0.00,,,0.00,WeatherCatV1.11B39,2013-05-19 06:21:00,
2013-05-19 02:26:00,54.7,44.7,30.31,West,275,0.0,0.0,69,0.00,,,0.00,WeatherCatV1.11B39,2013-05-19 06:26:00,
2013-05-19 02:31:00,54.0,44.4,30.31,West,274,0.0,0.0,70,0.00,,,0.00,WeatherCatV1.11B39,2013-05-19 06:31:00,
2013-05-19 02:36:00,53.3,44.1,30.31,West,274,0.0,0.0,71,0.00,,,0.00,WeatherCatV1.11B39,2013-05-19 06:36:00,
2013-05-19 02:41:00,53.2,44.8,30.31,West,274,0.0,0.0,73,0.00,,,0.00,WeatherCatV1.11B39,2013-05-19 06:41:00,
2013-05-19 02:46:00,52.8,44.4,30.31,West,274,0.0,0.0,73,0.00,,,0.00,WeatherCatV1.11B39,2013-05-19 06:46:00,
2013-05-19 02:51:00,52.5,44.5,30.32,West,274,0.0,0.0,74,0.00,,,0.00,WeatherCatV1.11B39,2013-05-19 06:51:00,
2013-05-19 02:56:00,52.3,44.3,30.32,West,274,0.0,0.0,74,0.00,,,0.00,WeatherCatV1.11B39,2013-05-19 06:56:00,
2013-05-19 03:01:00,52.1,44.4,30.32,West,274,0.0,0.0,75,0.00,,,0.00,WeatherCatV1.11B39,2013-05-19 07:01:00,
2013-05-19 03:06:00,51.8,44.5,30.31,West,274,0.0,0.0,76,0.00,,,0.00,WeatherCatV1.11B39,2013-05-19 07:06:00,
2013-05-19 03:11:00,51.6,44.3,30.32,West,274,0.0,0.0,76,0.00,,,0.00,WeatherCatV1.11B39,2013-05-19 07:11:00,
2013-05-19 03:16:00,51.3,44.0,30.32,West,274,0.0,0.0,76,0.00,,,0.00,WeatherCatV1.11B39,2013-05-19 07:16:00,
2013-05-19 03:21:00,51.2,44.6,30.31,West,274,0.0,0.0,78,0.00,,,0.00,WeatherCatV1.11B39,2013-05-19 07:21:00,
2013-05-19 03:26:00,50.7,44.1,30.32,West,274,0.0,0.0,78,0.00,,,0.00,WeatherCatV1.11B39,2013-05-19 07:26:00,
2013-05-19 03:31:00,50.4,43.8,30.32,West,274,0.0,0.0,78,0.00,,,0.00,WeatherCatV1.11B39,2013-05-19 07:31:00,
2013-05-19 03:36:00,50.3,44.0,30.32,West,274,0.0,0.0,79,0.00,,,0.00,WeatherCatV1.11B39,2013-05-19 07:36:00,
2013-05-19 03:41:00,50.1,44.2,30.32,West,274,0.0,0.0,80,0.00,,,0.00,WeatherCatV1.11B39,2013-05-19 07:41:00,
2013-05-19 03:46:00,50.0,44.4,30.32,West,274,0.0,0.0,81,0.00,,,0.00,WeatherCatV1.11B39,2013-05-19 07:46:00,
2013-05-19 03:51:00,50.0,44.7,30.32,West,274,0.0,0.0,82,0.00,,,0.00,WeatherCatV1.11B39,2013-05-19 07:51:00,
2013-05-19 03:56:00,49.7,44.4,30.32,West,274,0.0,0.0,82,0.00,,,0.00,WeatherCatV1.11B39,2013-05-19 07:56:00,
2013-05-19 04:01:00,49.7,44.4,30.32,West,274,0.0,0.0,82,0.00,,,0.00,WeatherCatV1.11B39,2013-05-19 08:01:00,
2013-05-19 04:06:00,49.8,44.8,30.32,West,274,0.0,0.0,83,0.00,,,0.00,WeatherCatV1.11B39,2013-05-19 08:06:00,
2013-05-19 04:11:00,49.7,44.7,30.32,West,274,0.0,0.0,83,0.00,,,0.00,WeatherCatV1.11B39,2013-05-19 08:11:00,
2013-05-19 04:16:00,49.7,44.7,30.32,West,274,0.0,0.0,83,0.00,,,0.00,WeatherCatV1.11B39,2013-05-19 08:16:00,
2013-05-19 04:21:00,49.4,44.5,30.32,West,274,0.0,0.0,83,0.00,,,0.00,WeatherCatV1.11B39,2013-05-19 08:21:00,
2013-05-19 04:26:00,49.2,44.6,30.32,West,274,0.0,0.0,84,0.00,,,0.00,WeatherCatV1.11B39,2013-05-19 08:26:00,
2013-05-19 04:31:00,48.8,44.2,30.32,West,274,0.0,0.0,84,0.00,,,0.00,WeatherCatV1.11B39,2013-05-19 08:31:00,
2013-05-19 04:36:00,48.7,44.7,30.32,West,274,0.0,0.0,86,0.00,,,0.00,WeatherCatV1.11B39,2013-05-19 08:36:00,
2013-05-19 04:41:00,48.2,44.2,30.32,NNE,12,0.0,0.0,86,0.00,,,0.00,WeatherCatV1.11B39,2013-05-19 08:41:00,
2013-05-19 04:46:00,47.8,44.1,30.33,NNE,12,0.0,0.0,87,0.00,,,0.00,WeatherCatV1.11B39,2013-05-19 08:46:00,
2013-05-19 04:51:00,47.9,44.2,30.33,NNE,12,0.0,0.0,87,0.00,,,0.00,WeatherCatV1.11B39,2013-05-19 08:51:00,
2013-05-19 04:56:00,48.1,44.7,30.33,NNE,12,0.0,0.0,88,0.00,,,0.00,WeatherCatV1.11B39,2013-05-19 08:56:00,
2013-05-19 05:01:00,47.8,44.4,30.33,NNE,12,0.0,0.0,88,0.00,,,0.00,WeatherCatV1.11B39,2013-05-19 09:01:00,
2013-05-19 05:06:00,47.4,44.0,30.33,NNE,12,0.0,0.0,88,0.00,,,0.00,WeatherCatV1.11B39,2013-05-19 09:06:00,
2013-05-19 05:11:00,47.3,44.2,30.33,NNE,12,0.0,0.0,89,0.00,,,0.00,WeatherCatV1.11B39,2013-05-19 09:11:00,
2013-05-19 05:16:00,47.1,44.0,30.33,NNE,12,0.0,0.0,89,0.00,,,0.00,WeatherCatV1.11B39,2013-05-19 09:16:00,
2013-05-19 05:21:00,46.9,43.8,30.33,NNE,12,0.0,0.0,89,0.00,,,0.00,WeatherCatV1.11B39,2013-05-19 09:21:00,
2013-05-19 05:26:00,46.9,44.1,30.34,NNE,12,0.0,0.0,90,0.00,,,0.00,WeatherCatV1.11B39,2013-05-19 09:26:00,
2013-05-19 05:31:00,46.9,44.1,30.33,NNE,12,0.0,0.0,90,0.00,,,0.00,WeatherCatV1.11B39,2013-05-19 09:31:00,
2013-05-19 05:36:00,46.7,43.9,30.34,NNE,12,0.0,0.0,90,0.00,,,0.00,WeatherCatV1.11B39,2013-05-19 09:36:00,
2013-05-19 05:41:00,46.6,43.8,30.34,NNE,12,0.0,0.0,90,0.00,,,0.00,WeatherCatV1.11B39,2013-05-19 09:41:00,
2013-05-19 05:46:00,46.5,43.7,30.34,NNE,12,0.0,0.0,90,0.00,,,0.00,WeatherCatV1.11B39,2013-05-19 09:46:00,
2013-05-19 05:51:00,46.3,43.5,30.34,NNE,12,0.0,0.0,90,0.00,,,0.00,WeatherCatV1.11B39,2013-05-19 09:51:00,
2013-05-19 05:56:00,46.3,43.5,30.34,NNE,12,0.0,0.0,90,0.00,,,0.00,WeatherCatV1.11B39,2013-05-19 09:56:00,
2013-05-19 06:01:00,46.2,43.7,30.35,NNE,12,0.0,0.0,91,0.00,,,0.00,WeatherCatV1.11B39,2013-05-19 10:01:00,
2013-05-19 06:06:00,46.2,43.7,30.35,NNE,12,0.0,0.0,91,0.00,,,0.00,WeatherCatV1.11B39,2013-05-19 10:06:00,
2013-05-19 06:11:00,46.0,43.5,30.35,NNE,12,0.0,0.0,91,0.00,,,0.00,WeatherCatV1.11B39,2013-05-19 10:11:00,
2013-05-19 06:16:00,45.9,43.4,30.35,NNE,12,0.0,0.0,91,0.00,,,0.00,WeatherCatV1.11B39,2013-05-19 10:16:00,
2013-05-19 06:21:00,45.9,43.7,30.36,NNE,12,0.0,0.0,92,0.00,,,0.00,WeatherCatV1.11B39,2013-05-19 10:21:00,
2013-05-19 06:26:00,45.9,43.7,30.36,NNE,12,0.0,0.0,92,0.00,,,0.00,WeatherCatV1.11B39,2013-05-19 10:26:00,
2013-05-19 06:31:00,45.9,43.7,30.36,NNE,12,0.0,0.0,92,0.00,,,0.00,WeatherCatV1.11B39,2013-05-19 10:31:00,
2013-05-19 06:36:00,45.9,43.7,30.36,NNE,12,0.0,0.0,92,0.00,,,0.00,WeatherCatV1.11B39,2013-05-19 10:36:00,
2013-05-19 06:41:00,46.0,43.8,30.36,NNE,14,0.0,0.0,92,0.00,,,0.00,WeatherCatV1.11B39,2013-05-19 10:41:00,
2013-05-19 06:46:00,46.2,44.0,30.36,NNE,14,0.0,0.0,92,0.00,,,0.00,WeatherCatV1.11B39,2013-05-19 10:46:00,
2013-05-19 06:51:00,46.3,44.4,30.36,NNE,14,0.0,0.0,93,0.00,,,0.00,WeatherCatV1.11B39,2013-05-19 10:51:00,
2013-05-19 06:56:00,46.5,44.3,30.37,NNE,14,0.0,0.0,92,0.00,,,0.00,WeatherCatV1.11B39,2013-05-19 10:56:00,
2013-05-19 07:01:00,46.6,44.4,30.36,NNE,14,0.0,0.0,92,0.00,,,0.00,WeatherCatV1.11B39,2013-05-19 11:01:00,
2013-05-19 07:06:00,46.8,44.6,30.36,NNE,14,0.0,0.0,92,0.00,,,0.00,WeatherCatV1.11B39,2013-05-19 11:06:00,
2013-05-19 07:11:00,46.6,44.4,30.37,NW,308,0.0,0.0,92,0.00,,,0.00,WeatherCatV1.11B39,2013-05-19 11:11:00,
2013-05-19 07:16:00,46.9,44.7,30.37,NW,308,0.0,0.0,92,0.00,,,0.00,WeatherCatV1.11B39,2013-05-19 11:16:00,
2013-05-19 07:21:00,46.9,44.7,30.37,NW,318,0.0,0.0,92,0.00,,,0.00,WeatherCatV1.11B39,2013-05-19 11:21:00,
2013-05-19 07:26:00,46.9,44.7,30.38,NW,318,0.0,0.0,92,0.00,,,0.00,WeatherCatV1.11B39,2013-05-19 11:26:00,
2013-05-19 07:31:00,47.2,45.0,30.37,North,8,0.0,2.0,92,0.00,,,0.00,WeatherCatV1.11B39,2013-05-19 11:31:00,
2013-05-19 07:36:00,47.2,45.0,30.37,North,10,0.0,0.0,92,0.00,,,0.00,WeatherCatV1.11B39,2013-05-19 11:36:00,
2013-05-19 07:41:00,47.1,44.9,30.38,NNE,27,0.0,0.0,92,0.00,,,0.00,WeatherCatV1.11B39,2013-05-19 11:41:00,
2013-05-19 07:46:00,47.2,45.0,30.37,NNE,27,0.0,0.0,92,0.00,,,0.00,WeatherCatV1.11B39,2013-05-19 11:46:00,
2013-05-19 07:51:00,47.5,45.3,30.37,NNE,27,0.0,0.0,92,0.00,,,0.00,WeatherCatV1.11B39,2013-05-19 11:51:00,
2013-05-19 07:56:00,47.9,46.3,30.37,NNE,27,0.0,0.0,94,0.00,,,0.00,WeatherCatV1.11B39,2013-05-19 11:56:00,
2013-05-19 08:01:00,48.2,46.3,30.37,NNE,27,0.0,0.0,93,0.00,,,0.00,WeatherCatV1.11B39,2013-05-19 12:01:00,
2013-05-19 08:06:00,48.4,46.5,30.37,NNE,26,0.0,0.0,93,0.00,,,0.00,WeatherCatV1.11B39,2013-05-19 12:06:00,
2013-05-19 08:11:00,48.7,46.8,30.37,NNE,26,0.0,0.0,93,0.00,,,0.00,WeatherCatV1.11B39,2013-05-19 12:11:00,
2013-05-19 08:16:00,48.8,46.9,30.38,NE,36,0.0,0.0,93,0.00,,,0.00,WeatherCatV1.11B39,2013-05-19 12:16:00,
2013-05-19 08:21:00,49.2,47.3,30.38,NE,36,0.0,0.0,93,0.00,,,0.00,WeatherCatV1.11B39,2013-05-19 12:21:00,
2013-05-19 08:26:00,49.5,47.6,30.37,NE,34,0.0,0.0,93,0.00,,,0.00,WeatherCatV1.11B39,2013-05-19 12:26:00,
2013-05-19 08:31:00,49.8,47.6,30.37,NE,34,0.0,0.0,92,0.00,,,0.00,WeatherCatV1.11B39,2013-05-19 12:31:00,
2013-05-19 08:36:00,50.1,48.2,30.37,NE,34,0.0,0.0,93,0.00,,,0.00,WeatherCatV1.11B39,2013-05-19 12:36:00,
2013-05-19 08:41:00,50.7,48.7,30.38,NE,34,0.0,0.0,93,0.00,,,0.00,WeatherCatV1.11B39,2013-05-19 12:41:00,
2013-05-19 08:46:00,51.0,48.8,30.38,NE,47,0.0,0.0,92,0.00,,,0.00,WeatherCatV1.11B39,2013-05-19 12:46:00,
2013-05-19 08:51:00,51.0,48.5,30.37,NE,47,0.0,0.0,91,0.00,,,0.00,WeatherCatV1.11B39,2013-05-19 12:51:00,
2013-05-19 08:56:00,51.2,49.0,30.37,NE,47,0.0,0.0,92,0.00,,,0.00,WeatherCatV1.11B39,2013-05-19 12:56:00,
2013-05-19 09:01:00,51.8,49.3,30.37,NE,47,0.0,0.0,91,0.00,,,0.00,WeatherCatV1.11B39,2013-05-19 13:01:00,
2013-05-19 09:06:00,52.5,49.9,30.37,NE,47,0.0,0.0,91,0.00,,,0.00,WeatherCatV1.11B39,2013-05-19 13:06:00,
2013-05-19 09:11:00,53.1,50.2,30.37,NE,49,0.0,0.0,90,0.00,,,0.00,WeatherCatV1.11B39,2013-05-19 13:11:00,
2013-05-19 09:16:00,53.5,50.3,30.38,WNW,294,0.0,0.0,89,0.00,,,0.00,WeatherCatV1.11B39,2013-05-19 13:16:00,
2013-05-19 09:21:00,54.0,50.8,30.37,WNW,294,0.0,0.0,89,0.00,,,0.00,WeatherCatV1.11B39,2013-05-19 13:21:00,
2013-05-19 09:26:00,54.6,51.1,30.37,WNW,294,0.0,0.0,88,0.00,,,0.00,WeatherCatV1.11B39,2013-05-19 13:26:00,
2013-05-19 09:31:00,55.3,51.8,30.38,WNW,294,0.0,0.0,88,0.00,,,0.00,WeatherCatV1.11B39,2013-05-19 13:31:00,
2013-05-19 09:36:00,55.9,51.8,30.37,WNW,294,0.0,0.0,86,0.00,,,0.00,WeatherCatV1.11B39,2013-05-19 13:36:00,
2013-05-19 09:41:00,56.8,52.0,30.37,NW,312,0.0,0.0,84,0.00,,,0.00,WeatherCatV1.11B39,2013-05-19 13:41:00,
2013-05-19 09:46:00,57.5,52.0,30.37,SE,124,0.0,0.0,82,0.00,,,0.00,WeatherCatV1.11B39,2013-05-19 13:46:00,
2013-05-19 09:51:00,57.9,51.8,30.36,SSW,199,0.0,0.0,80,0.00,,,0.00,WeatherCatV1.11B39,2013-05-19 13:51:00,
2013-05-19 09:56:00,58.5,52.0,30.36,SSW,199,0.0,0.0,79,0.00,,,0.00,WeatherCatV1.11B39,2013-05-19 13:56:00,
2013-05-19 10:01:00,59.6,52.7,30.36,South,188,0.0,0.0,78,0.00,,,0.00,WeatherCatV1.11B39,2013-05-19 14:01:00,
2013-05-19 10:06:00,60.6,52.6,30.36,South,188,0.0,0.0,75,0.00,,,0.00,WeatherCatV1.11B39,2013-05-19 14:06:00,
2013-05-19 10:11:00,61.3,52.6,30.36,South,188,0.0,0.0,73,0.00,,,0.00,WeatherCatV1.11B39,2013-05-19 14:11:00,
2013-05-19 10:16:00,62.0,52.9,30.36,South,188,0.0,0.0,72,0.00,,,0.00,WeatherCatV1.11B39,2013-05-19 14:16:00,
2013-05-19 10:21:00,62.8,52.5,30.36,South,184,0.0,0.0,69,0.00,,,0.00,WeatherCatV1.11B39,2013-05-19 14:21:00,
2013-05-19 10:26:00,63.4,53.0,30.36,South,184,0.0,0.0,69,0.00,,,0.00,WeatherCatV1.11B39,2013-05-19 14:26:00,
2013-05-19 10:31:00,64.0,52.8,30.36,South,173,0.0,0.0,67,0.00,,,0.00,WeatherCatV1.11B39,2013-05-19 14:31:00,
2013-05-19 10:36:00,64.5,52.5,30.36,SW,223,0.0,0.0,65,0.00,,,0.00,WeatherCatV1.11B39,2013-05-19 14:36:00,
2013-05-19 10:41:00,64.8,53.2,30.35,SW,234,0.0,0.0,66,0.00,,,0.00,WeatherCatV1.11B39,2013-05-19 14:41:00,
2013-05-19 10:46:00,65.3,52.8,30.35,SSW,199,0.0,0.0,64,0.00,,,0.00,WeatherCatV1.11B39,2013-05-19 14:46:00,
2013-05-19 10:51:00,65.9,52.5,30.36,SW,222,0.0,0.0,62,0.00,,,0.00,WeatherCatV1.11B39,2013-05-19 14:51:00,
2013-05-19 10:56:00,66.6,53.2,30.35,South,190,0.0,0.0,62,0.00,,,0.00,WeatherCatV1.11B39,2013-05-19 14:56:00,
2013-05-19 11:01:00,67.1,53.2,30.35,SW,230,0.0,0.0,61,0.00,,,0.00,WeatherCatV1.11B39,2013-05-19 15:01:00,
2013-05-19 11:06:00,67.4,52.6,30.35,WSW,239,0.0,0.0,59,0.00,,,0.00,WeatherCatV1.11B39,2013-05-19 15:06:00,
2013-05-19 11:11:00,66.4,51.2,30.35,SW,230,0.0,5.0,58,0.00,,,0.00,WeatherCatV1.11B39,2013-05-19 15:11:00,
2013-05-19 11:16:00,66.0,51.3,30.35,WSW,258,0.0,0.0,59,0.00,,,0.00,WeatherCatV1.11B39,2013-05-19 15:16:00,
2013-05-19 11:21:00,66.4,51.2,30.34,WSW,249,0.0,0.0,58,0.00,,,0.00,WeatherCatV1.11B39,2013-05-19 15:21:00,
2013-05-19 11:26:00,67.6,52.3,30.34,SSW,203,0.0,0.0,58,0.00,,,0.00,WeatherCatV1.11B39,2013-05-19 15:26:00,
2013-05-19 11:31:00,68.4,51.6,30.34,SW,232,0.0,0.0,55,0.00,,,0.00,WeatherCatV1.11B39,2013-05-19 15:31:00,
2013-05-19 11:36:00,68.3,51.0,30.34,WSW,246,0.0,0.0,54,0.00,,,0.00,WeatherCatV1.11B39,2013-05-19 15:36:00,
2013-05-19 11:41:00,67.7,50.9,30.34,WSW,241,0.0,1.0,55,0.00,,,0.00,WeatherCatV1.11B39,2013-05-19 15:41:00,
2013-05-19 11:46:00,67.0,49.3,30.34,WSW,240,0.0,1.0,53,0.00,,,0.00,WeatherCatV1.11B39,2013-05-19 15:46:00,
2013-05-19 11:51:00,66.6,49.9,30.34,WSW,244,0.0,1.0,55,0.00,,,0.00,WeatherCatV1.11B39,2013-05-19 15:51:00,
2013-05-19 11:56:00,66.3,49.6,30.33,SW,230,0.0,0.0,55,0.00,,,0.00,WeatherCatV1.11B39,2013-05-19 15:56:00,
2013-05-19 12:01:00,66.2,49.5,30.34,WSW,240,0.0,0.0,55,0.00,,,0.00,WeatherCatV1.11B39,2013-05-19 16:01:00,
2013-05-19 12:06:00,66.8,50.1,30.33,SSW,204,0.0,0.0,55,0.00,,,0.00,WeatherCatV1.11B39,2013-05-19 16:06:00,
2013-05-19 12:11:00,67.1,50.4,30.33,SW,227,0.0,0.0,55,0.00,,,0.00,WeatherCatV1.11B39,2013-05-19 16:11:00,
2013-05-19 12:16:00,67.5,50.8,30.33,South,175,0.0,0.0,55,0.00,,,0.00,WeatherCatV1.11B39,2013-05-19 16:16:00,
2013-05-19 12:21:00,67.6,49.8,30.33,WSW,246,0.0,0.0,53,0.00,,,0.00,WeatherCatV1.11B39,2013-05-19 16:21:00,
2013-05-19 12:26:00,67.3,48.5,30.32,SSW,208,0.0,0.0,51,0.00,,,0.00,WeatherCatV1.11B39,2013-05-19 16:26:00,
2013-05-19 12:31:00,67.3,49.6,30.33,SW,230,0.0,0.0,53,0.00,,,0.00,WeatherCatV1.11B39,2013-05-19 16:31:00,
2013-05-19 12:36:00,67.6,48.3,30.32,SSE,162,0.0,0.0,50,0.00,,,0.00,WeatherCatV1.11B39,2013-05-19 16:36:00,
2013-05-19 12:41:00,67.9,49.1,30.33,SE,145,0.0,0.0,51,0.00,,,0.00,WeatherCatV1.11B39,2013-05-19 16:41:00,
2013-05-19 12:46:00,67.9,48.6,30.33,SSW,194,0.0,0.0,50,0.00,,,0.00,WeatherCatV1.11B39,2013-05-19 16:46:00,
2013-05-19 12:51:00,67.6,48.8,30.32,SSW,200,0.0,0.0,51,0.00,,,0.00,WeatherCatV1.11B39,2013-05-19 16:51:00,
2013-05-19 12:56:00,67.0,48.3,30.32,WSW,238,4.0,9.0,51,0.00,,,0.00,WeatherCatV1.11B39,2013-05-19 16:56:00,
2013-05-19 13:01:00,66.9,49.2,30.32,West,270,0.0,1.0,53,0.00,,,0.00,WeatherCatV1.11B39,2013-05-19 17:01:00,
2013-05-19 13:06:00,66.6,49.4,30.32,WSW,248,0.0,3.0,54,0.00,,,0.00,WeatherCatV1.11B39,2013-05-19 17:06:00,
2013-05-19 13:11:00,66.4,49.2,30.32,WSW,238,0.0,4.0,54,0.00,,,0.00,WeatherCatV1.11B39,2013-05-19 17:11:00,
2013-05-19 13:16:00,66.3,49.6,30.32,WSW,238,0.0,5.0,55,0.00,,,0.00,WeatherCatV1.11B39,2013-05-19 17:16:00,
2013-05-19 13:21:00,66.3,49.6,30.31,WSW,240,0.0,0.0,55,0.00,,,0.00,WeatherCatV1.11B39,2013-05-19 17:21:00,
2013-05-19 13:26:00,66.3,49.6,30.31,WSW,241,5.0,7.0,55,0.00,,,0.00,WeatherCatV1.11B39,2013-05-19 17:26:00,
2013-05-19 13:31:00,66.3,47.6,30.31,WSW,249,0.0,6.0,51,0.00,,,0.00,WeatherCatV1.11B39,2013-05-19 17:31:00,
2013-05-19 13:36:00,66.4,48.7,30.31,WSW,253,3.0,7.0,53,0.00,,,0.00,WeatherCatV1.11B39,2013-05-19 17:36:00,
2013-05-19 13:41:00,66.6,48.9,30.30,SSW,208,0.0,0.0,53,0.00,,,0.00,WeatherCatV1.11B39,2013-05-19 17:41:00,
2013-05-19 13:46:00,66.7,49.0,30.30,SW,236,6.0,11.0,53,0.00,,,0.00,WeatherCatV1.11B39,2013-05-19 17:46:00,
2013-05-19 13:51:00,66.6,47.9,30.31,WSW,238,7.0,9.0,51,0.00,,,0.00,WeatherCatV1.11B39,2013-05-19 17:51:00,
2013-05-19 13:56:00,66.6,48.9,30.30,WSW,242,0.0,4.0,53,0.00,,,0.00,WeatherCatV1.11B39,2013-05-19 17:56:00,
2013-05-19 14:01:00,66.8,49.1,30.30,WSW,246,5.0,6.0,53,0.00,,,0.00,WeatherCatV1.11B39,2013-05-19 18:01:00,
2013-05-19 14:06:00,66.9,48.7,30.30,SW,225,0.0,5.0,52,0.00,,,0.00,WeatherCatV1.11B39,2013-05-19 18:06:00,
2013-05-19 14:11:00,66.9,49.2,30.30,SSW,202,0.0,7.0,53,0.00,,,0.00,WeatherCatV1.11B39,2013-05-19 18:11:00,
2013-05-19 14:16:00,67.1,49.4,30.29,SW,219,2.0,5.0,53,0.00,,,0.00,WeatherCatV1.11B39,2013-05-19 18:16:00,
2013-05-19 14:21:00,66.9,48.7,30.30,WSW,242,4.0,8.0,52,0.00,,,0.00,WeatherCatV1.11B39,2013-05-19 18:21:00,
2013-05-19 14:26:00,66.7,48.5,30.29,SW,234,0.0,5.0,52,0.00,,,0.00,WeatherCatV1.11B39,2013-05-19 18:26:00,
2013-05-19 14:31:00,66.9,49.2,30.30,SW,227,0.0,4.0,53,0.00,,,0.00,WeatherCatV1.11B39,2013-05-19 18:31:00,
2013-05-19 14:36:00,66.9,47.6,30.30,WSW,237,0.0,7.0,50,0.00,,,0.00,WeatherCatV1.11B39,2013-05-19 18:36:00,
2013-05-19 14:41:00,66.8,47.6,30.29,WSW,247,2.0,7.0,50,0.00,,,0.00,WeatherCatV1.11B39,2013-05-19 18:41:00,
2013-05-19 14:46:00,66.9,48.2,30.29,WSW,246,7.0,10.0,51,0.00,,,0.00,WeatherCatV1.11B39,2013-05-19 18:46:00,
2013-05-19 14:51:00,66.8,48.6,30.30,WSW,248,3.0,9.0,52,0.00,,,0.00,WeatherCatV1.11B39,2013-05-19 18:51:00,
2013-05-19 14:56:00,66.6,48.4,30.29,WSW,244,5.0,7.0,52,0.00,,,0.00,WeatherCatV1.11B39,2013-05-19 18:56:00,
2013-05-19 15:01:00,66.4,48.2,30.29,WSW,241,4.0,6.0,52,0.00,,,0.00,WeatherCatV1.11B39,2013-05-19 19:01:00,
2013-05-19 15:06:00,66.4,47.7,30.29,WSW,242,0.0,0.0,51,0.00,,,0.00,WeatherCatV1.11B39,2013-05-19 19:06:00,
2013-05-19 15:11:00,66.6,46.3,30.29,WSW,242,2.0,6.0,48,0.00,,,0.00,WeatherCatV1.11B39,2013-05-19 19:11:00,
2013-05-19 15:16:00,66.6,46.8,30.29,WSW,242,4.0,6.0,49,0.00,,,0.00,WeatherCatV1.11B39,2013-05-19 19:16:00,
2013-05-19 15:21:00,66.8,47.0,30.28,WSW,245,0.0,0.0,49,0.00,,,0.00,WeatherCatV1.11B39,2013-05-19 19:21:00,
2013-05-19 15:26:00,66.9,47.6,30.29,WSW,239,3.0,5.0,50,0.00,,,0.00,WeatherCatV1.11B39,2013-05-19 19:26:00,
2013-05-19 15:31:00,66.9,47.6,30.29,SW,233,4.0,7.0,50,0.00,,,0.00,WeatherCatV1.11B39,2013-05-19 19:31:00,
2013-05-19 15:36:00,66.6,48.4,30.29,WSW,241,10.0,13.0,52,0.00,,,0.00,WeatherCatV1.11B39,2013-05-19 19:36:00,
2013-05-19 15:41:00,66.4,49.7,30.29,WSW,250,2.0,8.0,55,0.00,,,0.00,WeatherCatV1.11B39,2013-05-19 19:41:00,
2013-05-19 15:46:00,66.1,49.0,30.29,WSW,252,7.0,9.0,54,0.00,,,0.00,WeatherCatV1.11B39,2013-05-19 19:46:00,
2013-05-19 15:51:00,65.9,49.3,30.29,WSW,248,4.0,7.0,55,0.00,,,0.00,WeatherCatV1.11B39,2013-05-19 19:51:00,
2013-05-19 15:56:00,65.8,49.7,30.29,WSW,246,2.0,7.0,56,0.00,,,0.00,WeatherCatV1.11B39,2013-05-19 19:56:00,
2013-05-19 16:01:00,65.8,49.2,30.29,SW,232,5.0,6.0,55,0.00,,,0.00,WeatherCatV1.11B39,2013-05-19 20:01:00,
2013-05-19 16:06:00,65.6,49.9,30.28,WSW,247,7.0,9.0,57,0.00,,,0.00,WeatherCatV1.11B39,2013-05-19 20:06:00,
2013-05-19 16:11:00,65.4,50.2,30.29,WSW,237,5.0,11.0,58,0.00,,,0.00,WeatherCatV1.11B39,2013-05-19 20:11:00,
2013-05-19 16:16:00,65.2,51.4,30.29,WSW,254,4.0,5.0,61,0.00,,,0.00,WeatherCatV1.11B39,2013-05-19 20:16:00,
2013-05-19 16:21:00,64.7,51.4,30.29,WSW,248,7.0,9.0,62,0.00,,,0.00,WeatherCatV1.11B39,2013-05-19 20:21:00,
2013-05-19 16:26:00,63.9,51.9,30.30,WSW,246,9.0,12.0,65,0.00,,,0.00,WeatherCatV1.11B39,2013-05-19 20:26:00,
2013-05-19 16:31:00,62.4,52.5,30.30,WSW,253,5.0,11.0,70,0.00,,,0.00,WeatherCatV1.11B39,2013-05-19 20:31:00,
2013-05-19 16:36:00,61.5,53.5,30.30,WSW,246,5.0,9.0,75,0.00,,,0.00,WeatherCatV1.11B39,2013-05-19 20:36:00,
2013-05-19 16:41:00,60.7,53.4,30.30,SW,231,0.0,5.0,77,0.00,,,0.00,WeatherCatV1.11B39,2013-05-19 20:41:00,
2013-05-19 16:47:00,60.6,54.0,30.30,WSW,245,0.0,0.0,79,0.00,,,0.00,WeatherCatV1.11B39,2013-05-19 20:47:00,
2013-05-19 16:52:00,60.4,54.2,30.30,West,259,0.0,0.0,80,0.00,,,0.00,WeatherCatV1.11B39,2013-05-19 20:52:00,
2013-05-19 16:57:00,60.2,54.7,30.30,SW,229,2.0,5.0,82,0.00,,,0.00,WeatherCatV1.11B39,2013-05-19 20:57:00,
2013-05-19 17:02:00,60.2,54.3,30.30,WSW,249,6.0,6.0,81,0.00,,,0.00,WeatherCatV1.11B39,2013-05-19 21:02:00,
2013-05-19 17:07:00,60.1,54.6,30.30,WSW,247,0.0,4.0,82,0.00,,,0.00,WeatherCatV1.11B39,2013-05-19 21:07:00,
2013-05-19 17:12:00,60.1,54.6,30.30,SW,228,0.0,5.0,82,0.00,,,0.00,WeatherCatV1.11B39,2013-05-19 21:12:00,
2013-05-19 17:17:00,60.1,54.9,30.30,WSW,253,0.0,0.0,83,0.00,,,0.00,WeatherCatV1.11B39,2013-05-19 21:17:00,
2013-05-19 17:22:00,60.1,54.6,30.30,WSW,253,0.0,0.0,82,0.00,,,0.00,WeatherCatV1.11B39,2013-05-19 21:22:00,
2013-05-19 17:27:00,59.9,54.4,30.31,WSW,253,0.0,0.0,82,0.00,,,0.00,WeatherCatV1.11B39,2013-05-19 21:27:00,
2013-05-19 17:32:00,59.8,54.3,30.31,WSW,253,0.0,0.0,82,0.00,,,0.00,WeatherCatV1.11B39,2013-05-19 21:32:00,
2013-05-19 17:37:00,59.6,54.4,30.31,West,259,0.0,0.0,83,0.00,,,0.00,WeatherCatV1.11B39,2013-05-19 21:37:00,
2013-05-19 17:42:00,59.5,54.3,30.30,SW,236,0.0,0.0,83,0.00,,,0.00,WeatherCatV1.11B39,2013-05-19 21:42:00,
2013-05-19 17:47:00,59.5,54.7,30.30,SW,236,0.0,0.0,84,0.00,,,0.00,WeatherCatV1.11B39,2013-05-19 21:47:00,
2013-05-19 17:52:00,59.3,54.5,30.30,SW,236,0.0,4.0,84,0.00,,,0.00,WeatherCatV1.11B39,2013-05-19 21:52:00,
2013-05-19 17:57:00,59.1,54.3,30.30,WSW,239,5.0,5.0,84,0.00,,,0.00,WeatherCatV1.11B39,2013-05-19 21:57:00,
2013-05-19 18:02:00,59.0,54.2,30.31,WSW,243,0.0,0.0,84,0.00,,,0.00,WeatherCatV1.11B39,2013-05-19 22:02:00,
2013-05-19 18:07:00,58.9,54.4,30.30,WSW,242,0.0,0.0,85,0.00,,,0.00,WeatherCatV1.11B39,2013-05-19 22:07:00,
2013-05-19 18:12:00,58.7,54.2,30.31,WSW,242,0.0,0.0,85,0.00,,,0.00,WeatherCatV1.11B39,2013-05-19 22:12:00,
2013-05-19 18:17:00,58.5,54.3,30.31,SSW,194,0.0,0.0,86,0.00,,,0.01,WeatherCatV1.11B39,2013-05-19 22:17:00,
2013-05-19 18:22:00,58.4,53.9,30.31,SW,219,0.0,0.0,85,0.00,,,0.01,WeatherCatV1.11B39,2013-05-19 22:22:00,
2013-05-19 18:27:00,58.4,53.9,30.31,SW,219,0.0,0.0,85,0.00,,,0.01,WeatherCatV1.11B39,2013-05-19 22:27:00,
2013-05-19 18:32:00,58.3,54.1,30.30,SW,219,0.0,0.0,86,0.00,,,0.01,WeatherCatV1.11B39,2013-05-19 22:32:00,
2013-05-19 18:37:00,58.1,53.9,30.31,SW,225,0.0,5.0,86,0.00,,,0.01,WeatherCatV1.11B39,2013-05-19 22:37:00,
2013-05-19 18:42:00,57.9,53.7,30.30,South,177,0.0,0.0,86,0.00,,,0.01,WeatherCatV1.11B39,2013-05-19 22:42:00,
2013-05-19 18:47:00,57.6,53.1,30.30,South,186,0.0,5.0,85,0.00,,,0.01,WeatherCatV1.11B39,2013-05-19 22:47:00,
2013-05-19 18:52:00,57.5,53.0,30.30,SW,216,0.0,5.0,85,0.00,,,0.01,WeatherCatV1.11B39,2013-05-19 22:52:00,
2013-05-19 18:57:00,57.4,52.9,30.30,SSW,198,0.0,0.0,85,0.00,,,0.01,WeatherCatV1.11B39,2013-05-19 22:57:00,
2013-05-19 19:02:00,57.3,53.1,30.30,WSW,255,0.0,5.0,86,0.00,,,0.01,WeatherCatV1.11B39,2013-05-19 23:02:00,
2013-05-19 19:07:00,57.2,53.0,30.30,West,263,0.0,0.0,86,0.00,,,0.01,WeatherCatV1.11B39,2013-05-19 23:07:00,
2013-05-19 19:12:00,57.2,53.0,30.31,West,262,0.0,0.0,86,0.00,,,0.01,WeatherCatV1.11B39,2013-05-19 23:12:00,
2013-05-19 19:17:00,57.1,52.9,30.31,WSW,239,2.0,2.0,86,0.00,,,0.01,WeatherCatV1.11B39,2013-05-19 23:17:00,
2013-05-19 19:22:00,57.1,53.3,30.30,SW,232,0.0,0.0,87,0.00,,,0.01,WeatherCatV1.11B39,2013-05-19 23:22:00,
2013-05-19 19:27:00,57.1,53.3,30.30,SW,232,0.0,0.0,87,0.00,,,0.01,WeatherCatV1.11B39,2013-05-19 23:27:00,
2013-05-19 19:32:00,57.1,53.3,30.31,SW,236,0.0,0.0,87,0.00,,,0.01,WeatherCatV1.11B39,2013-05-19 23:32:00,
2013-05-19 19:37:00,56.9,53.4,30.30,WSW,240,0.0,0.0,88,0.00,,,0.01,WeatherCatV1.11B39,2013-05-19 23:37:00,
2013-05-19 19:42:00,56.9,53.4,30.30,WSW,239,0.0,0.0,88,0.00,,,0.01,WeatherCatV1.11B39,2013-05-19 23:42:00,
2013-05-19 19:43:00,56.9,53.4,30.30,WSW,240,0.0,0.0,88,0.00,,,0.01,WeatherCatV1.11B39,2013-05-19 23:43:00,
2013-05-19 19:48:00,56.7,53.5,30.30,WSW,241,0.0,0.0,89,0.00,,,0.01,WeatherCatV1.11B39,2013-05-19 23:48:00,
2013-05-19 19:53:00,56.8,53.6,30.30,WSW,246,0.0,0.0,89,0.00,,,0.01,WeatherCatV1.11B39,2013-05-19 23:53:00,
2013-05-19 19:58:00,56.8,53.9,30.31,WSW,246,0.0,0.0,90,0.00,,,0.01,WeatherCatV1.11B39,2013-05-19 23:58:00,
2013-05-19 20:03:00,56.6,53.7,30.30,WSW,239,2.0,6.0,90,0.00,,,0.01,WeatherCatV1.11B39,2013-05-20 00:03:00,
2013-05-19 20:08:00,56.5,53.6,30.30,SW,232,0.0,0.0,90,0.00,,,0.01,WeatherCatV1.11B39,2013-05-20 00:08:00,
2013-05-19 20:13:00,56.4,53.5,30.30,WSW,237,2.0,4.0,90,0.00,,,0.01,WeatherCatV1.11B39,2013-05-20 00:13:00,
2013-05-19 20:18:00,56.3,53.4,30.30,WSW,237,0.0,0.0,90,0.00,,,0.01,WeatherCatV1.11B39,2013-05-20 00:18:00,
2013-05-19 20:23:00,56.2,53.3,30.30,SW,236,0.0,0.0,90,0.00,,,0.01,WeatherCatV1.11B39,2013-05-20 00:23:00,
2013-05-19 20:28:00,56.0,53.4,30.30,WSW,237,0.0,0.0,91,0.00,,,0.01,WeatherCatV1.11B39,2013-05-20 00:28:00,
2013-05-19 20:33:00,56.0,53.4,30.29,SW,236,0.0,0.0,91,0.00,,,0.01,WeatherCatV1.11B39,2013-05-20 00:33:00,
2013-05-19 20:38:00,55.8,53.2,30.30,WSW,237,0.0,0.0,91,0.00,,,0.01,WeatherCatV1.11B39,2013-05-20 00:38:00,
2013-05-19 20:43:00,55.9,53.6,30.29,SW,236,0.0,0.0,92,0.00,,,0.01,WeatherCatV1.11B39,2013-05-20 00:43:00,
2013-05-19 20:48:00,55.7,53.4,30.29,SW,236,0.0,0.0,92,0.00,,,0.01,WeatherCatV1.11B39,2013-05-20 00:48:00,
2013-05-19 20:53:00,55.7,53.4,30.28,SW,236,0.0,0.0,92,0.00,,,0.02,WeatherCatV1.11B39,2013-05-20 00:53:00,
2013-05-19 20:58:00,55.6,53.3,30.29,SW,236,0.0,0.0,92,0.00,,,0.02,WeatherCatV1.11B39,2013-05-20 00:58:00,
2013-05-19 21:03:00,55.6,53.3,30.29,SW,236,0.0,0.0,92,0.00,,,0.02,WeatherCatV1.11B39,2013-05-20 01:03:00,
2013-05-19 21:08:00,55.6,53.3,30.29,WSW,240,0.0,0.0,92,0.00,,,0.02,WeatherCatV1.11B39,2013-05-20 01:08:00,
2013-05-19 21:13:00,55.4,53.1,30.29,South,181,0.0,0.0,92,0.00,,,0.02,WeatherCatV1.11B39,2013-05-20 01:13:00,
2013-05-19 21:18:00,55.4,53.1,30.29,SSW,201,0.0,0.0,92,0.00,,,0.02,WeatherCatV1.11B39,2013-05-20 01:18:00,
2013-05-19 21:23:00,55.4,53.4,30.28,SE,143,0.0,0.0,93,0.00,,,0.02,WeatherCatV1.11B39,2013-05-20 01:23:00,
2013-05-19 21:28:00,55.2,53.2,30.29,SSE,168,0.0,0.0,93,0.00,,,0.02,WeatherCatV1.11B39,2013-05-20 01:28:00,
2013-05-19 21:33:00,55.3,53.3,30.29,South,175,0.0,0.0,93,0.00,,,0.02,WeatherCatV1.11B39,2013-05-20 01:33:00,
2013-05-19 21:38:00,55.3,53.6,30.29,SSW,209,0.0,0.0,94,0.00,,,0.02,WeatherCatV1.11B39,2013-05-20 01:38:00,
2013-05-19 21:43:00,55.3,53.6,30.28,SSW,209,0.0,0.0,94,0.00,,,0.03,WeatherCatV1.11B39,2013-05-20 01:43:00,
2013-05-19 21:48:00,55.3,53.6,30.28,SSW,195,0.0,0.0,94,0.00,,,0.03,WeatherCatV1.11B39,2013-05-20 01:48:00,
2013-05-19 21:53:00,55.3,53.6,30.28,SSW,194,0.0,0.0,94,0.00,,,0.03,WeatherCatV1.11B39,2013-05-20 01:53:00,
2013-05-19 21:58:00,55.2,53.5,30.27,SSW,193,0.0,0.0,94,0.00,,,0.03,WeatherCatV1.11B39,2013-05-20 01:58:00,
2013-05-19 22:03:00,55.2,53.5,30.28,SSE,163,0.0,0.0,94,0.00,,,0.03,WeatherCatV1.11B39,2013-05-20 02:03:00,
2013-05-19 22:08:00,55.2,53.5,30.27,SSE,163,0.0,0.0,94,0.00,,,0.03,WeatherCatV1.11B39,2013-05-20 02:08:00,
2013-05-19 22:13:00,55.4,53.7,30.27,SSE,163,0.0,0.0,94,0.00,,,0.03,WeatherCatV1.11B39,2013-05-20 02:13:00,
2013-05-19 22:18:00,55.4,53.7,30.27,SSE,163,0.0,0.0,94,0.00,,,0.03,WeatherCatV1.11B39,2013-05-20 02:18:00,
2013-05-19 22:23:00,55.4,53.7,30.27,SSE,163,0.0,0.0,94,0.00,,,0.03,WeatherCatV1.11B39,2013-05-20 02:23:00,
2013-05-19 22:28:00,55.4,54.0,30.27,SSE,163,0.0,0.0,95,0.00,,,0.03,WeatherCatV1.11B39,2013-05-20 02:28:00,
2013-05-19 22:33:00,55.4,54.0,30.27,SSE,163,0.0,0.0,95,0.00,,,0.03,WeatherCatV1.11B39,2013-05-20 02:33:00,
2013-05-19 22:38:00,55.4,54.3,30.27,SSE,163,0.0,0.0,96,0.00,,,0.03,WeatherCatV1.11B39,2013-05-20 02:38:00,
2013-05-19 22:43:00,55.6,54.2,30.27,ESE,122,0.0,0.0,95,0.00,,,0.03,WeatherCatV1.11B39,2013-05-20 02:43:00,
2013-05-19 22:48:00,55.6,54.2,30.27,ESE,122,0.0,0.0,95,0.00,,,0.03,WeatherCatV1.11B39,2013-05-20 02:48:00,
2013-05-19 22:53:00,55.6,54.2,30.26,SSE,160,0.0,0.0,95,0.00,,,0.03,WeatherCatV1.11B39,2013-05-20 02:53:00,
2013-05-19 22:58:00,55.5,54.1,30.26,SSE,160,0.0,0.0,95,0.00,,,0.03,WeatherCatV1.11B39,2013-05-20 02:58:00,
2013-05-19 23:03:00,55.6,54.2,30.26,SSE,161,0.0,0.0,95,0.00,,,0.04,WeatherCatV1.11B39,2013-05-20 03:03:00,
2013-05-19 23:08:00,55.6,54.2,30.26,WSW,243,0.0,3.0,95,0.00,,,0.04,WeatherCatV1.11B39,2013-05-20 03:08:00,
2013-05-19 23:13:00,55.7,54.6,30.26,SW,215,0.0,0.0,96,0.00,,,0.04,WeatherCatV1.11B39,2013-05-20 03:13:00,
2013-05-19 23:18:00,55.5,54.4,30.25,SSW,212,0.0,0.0,96,0.00,,,0.04,WeatherCatV1.11B39,2013-05-20 03:18:00,
2013-05-19 23:23:00,55.7,54.3,30.25,SSE,160,0.0,0.0,95,0.00,,,0.04,WeatherCatV1.11B39,2013-05-20 03:23:00,
2013-05-19 23:28:00,55.7,54.3,30.25,SSE,160,0.0,0.0,95,0.00,,,0.04,WeatherCatV1.11B39,2013-05-20 03:28:00,
2013-05-19 23:33:00,55.6,54.5,30.25,SSE,160,0.0,0.0,96,0.00,,,0.04,WeatherCatV1.11B39,2013-05-20 03:33:00,
2013-05-19 23:38:00,55.6,54.5,30.25,SSE,160,0.0,0.0,96,0.00,,,0.04,WeatherCatV1.11B39,2013-05-20 03:38:00,
2013-05-19 23:43:00,55.6,54.5,30.25,SSE,160,0.0,0.0,96,0.00,,,0.04,WeatherCatV1.11B39,2013-05-20 03:43:00,
2013-05-19 23:48:00,55.6,54.5,30.25,SSE,160,0.0,0.0,96,0.00,,,0.05,WeatherCatV1.11B39,2013-05-20 03:48:00,
2013-05-19 23:53:00,55.6,54.8,30.24,SSE,160,0.0,0.0,97,0.00,,,0.05,WeatherCatV1.11B39,2013-05-20 03:53:00,
2013-05-19 23:58:00,55.7,54.6,30.24,SSE,160,0.0,0.0,96,0.00,,,0.05,WeatherCatV1.11B39,2013-05-20 03:58:00,